Regional Weather Roundup
Issued by NWS Binghamton, NY

Home | Current Version | Previous Version | Text Only | Print | Product List | Glossary On
Versions: 1 2 3 4 5 6 7 8 9 10 11 12 13 14 15 16 17 18 19 20 21 22 23 24 25 26 27 28 29 30 31 32 33 34 35 36 37 38 39 40 41 42 43 44 45 46 47 48 49
000
ASUS41 KBGM 310910
RWRBGM
RWRBGM
BINGHAMTON REGIONAL WEATHER ROUNDUP
NATIONAL WEATHER SERVICE BINGHAMTON NY
400 AM EST SAT JAN 31 2015

Note: "fair" indicates few or no clouds below 12,000 feet with no
significant weather and/or obstructions to visibility.

* = Station(s) that does not report precipitation, such as rain,
snow, etc, also no thunder or fog.

!NYZ009-015>018-022>025-036-037-044>046-055>057-062-311000
...CENTRAL NEW YORK...

CITY           SKY/WX    TMP DP  RH WIND       PRES   REMARKS
BINGHAMTON     MIX PCPN   5  -2  72 NW17G31   30.09S WCI -14
CORTLAND       CLOUDY     5   1  85 W3        30.20S FOG
DANSVILLE      CLOUDY     8   2  76 N5        30.31F WCI   0
ELMIRA         MOCLDY     7  -2  66 VRB3      30.26S
ITHACA         NOT AVBL
HAMILTON       CLOUDY     0   7 100 N6        30.18  WCI -12
MONTICELLO     CLEAR      3  -2  78 NW17G28   30.02S WCI -17
NORWICH        CLOUDY     1  -6  71 N6        30.18S WCI -10
ONEONTA        CLEAR     -2  -9  71 NW12      30.06S WCI -20
PENN YAN       CLEAR      5  -3  69 W5        30.26F WCI  -4
ROME           PTCLDY    -3 -11  68 NW8       30.28R WCI -18
SIDNEY         MOCLDY     5  -2  72 CALM      30.16F
SYRACUSE       FLURRIES   0  -3  87 N5        30.29S WCI -10
$$

!PAZ038>040-043-044-047-048-072-311000
...NORTHEAST PENNSYLVANIA...

CITY           SKY/WX    TMP DP  RH WIND       PRES   REMARKS
HAZLETON       PTCLDY     7  -4  61 W10G20    30.12R WCI  -8
SCRANTON       CLOUDY     9  -3  58 NW10      30.17R WCI  -5
TOWANDA*       CLEAR      9  -2  61 CALM      30.26S
$$
&&
KEY
WCI = WIND CHILL INDEX
VSB = VISIBILITY
HX  = HEAT INDEX
$$


USA.gov is the U.S. government's official web portal to all federal, state and local government web resources and services.